#timestamp,LO_Frequency,Hit,StdDev 
1715018415.5,286047000.1,N
1715018435.3,286047000.2,N
1715018455.1,286047002.8,N
1715018475.9,286047000.1,N
1715018495.7,286047000.6,N
1715018515.6,286046999.8,N
1715018535.4,286047002.7,N
1715018555.2,286047000.4,N
1715018575.1,286046999.8,N
1715018576.0,286046999.8,N
1715018595.8,286047002.3,N
1715018615.7,286047000.0,N
1715018635.5,286047002.7,N
1715018655.3,286047002.8,N
1715018675.2,286047002.4,N
1715018695.0,286046999.7,N
1715018695.9,286046999.7,N
1715018715.8,286047002.4,N
1715018735.6,286047002.4,N
1715018755.5,286047000.8,N
1715018775.3,286047000.5,N
1715018795.1,286047001.1,N
1715018815.9,286046998.2,N
1715018835.7,286047000.6,N
1715018855.6,286047002.0,N
1715018875.4,286047002.5,N
1715018895.2,286047002.3,N
1715018915.1,286047002.4,N
1715018916.0,286047002.4,N
1715018935.8,286046999.7,N
1715018955.6,286047000.0,N
1715018975.5,286047000.3,N
1715018995.3,286046999.9,N
1715019015.2,286046999.7,N
1715019035.0,286047002.6,N
1715019035.9,286047002.6,N
1715019055.7,286047002.4,N
1715019075.6,286047002.3,N
1715019095.4,286047002.8,N
1715019115.3,286046999.7,N
1715019135.1,286047000.4,N
1715019155.9,286047002.7,N
1715019175.7,286047001.6,N
1715019195.5,286047000.2,N
1715019215.4,286046999.7,N
1715019235.2,286047000.2,N
1715019255.1,286047000.0,N
1715019256.0,286047000.0,N
1715019275.8,286046998.1,N
1715019295.6,286046998.6,N
1715019315.5,286046999.1,N
1715019335.3,286046999.4,N
1715019355.1,286046996.9,N
1715019375.9,286046997.0,N
1715019395.7,286046996.8,N
1715019415.6,286046997.3,N
1715019435.4,286046999.3,N
1715019455.2,286046999.2,N
1715019475.1,286046996.7,N
1715019476.0,286046996.7,N
1715019495.8,286046995.8,N
1715019515.7,286046997.6,N
1715019535.5,286046995.4,N
1715019555.3,286046995.3,N
1715019575.2,286046995.2,N
1715019595.0,286046995.1,N
1715019595.9,286046995.1,N
1715019615.8,286046997.4,N
1715019635.6,286046996.8,N
1715019655.4,286046999.6,N
1715019675.3,286046999.0,N
1715019695.1,286046997.4,N
1715019715.9,286046997.3,N
1715019735.7,286046997.9,N
1715019755.5,286046997.6,N
1715019775.4,286046995.8,N
1715019795.2,286046995.4,Y
1715019815.0,286046998.7,P
1715019815.9,286046998.7,N
1715019835.8,286046996.6,P
1715019855.6,286046998.9,N
1715019875.5,286046997.0,Y
1715019895.3,286046998.5,P
1715019915.1,286046999.0,P
1715019935.9,286046998.9,N
1715019955.7,286046996.6,Y
1715019975.6,286046998.5,P
1715019995.4,286046998.1,P
1715020015.2,286047001.0,P
1715020035.1,286046998.5,N
1715020036.0,286046998.5,N
1715020055.8,286046998.1,N
1715020075.7,286047000.0,N
1715020095.5,286046998.1,N
1715020115.3,286047001.2,N
1715020135.2,286047001.1,N
1715020155.9,286046998.2,N
1715020175.7,286046999.4,N
1715020195.6,286046999.5,N
1715020215.4,286046996.9,N
1715020235.3,286046997.0,N
1715020255.1,286046999.3,N
1715020256.0,286046999.3,N
1715020275.8,286046998.3,N
1715020295.7,286046999.1,N
1715020315.5,286046999.5,N
1715020335.3,286046999.3,N
1715020355.2,286046997.0,N
1715020375.0,286046996.5,Y
1715020375.9,286046996.5,P
1715020395.8,286046998.1,N
1715020415.6,286046998.2,N
1715020435.4,286046999.3,N
1715020455.3,286046999.6,N
1715020475.1,286046997.1,N
1715020495.9,286046996.5,Y
1715020515.7,286046998.2,P
1715020535.5,286047000.9,P
1715020555.4,286047000.2,N
1715020575.2,286046998.2,N
1715020595.0,286047000.0,N
1715020596.0,286047000.0,N
1715020615.8,286047000.2,N
1715020635.6,286047000.4,N
1715020655.5,286047000.9,N
1715020675.3,286047002.6,N
1715020695.1,286047001.4,N
1715020715.9,286047003.9,N
1715020735.7,286047001.5,N
1715020755.6,286047002.4,N
1715020775.4,286047000.2,N
1715020795.2,286046999.9,N
1715020815.1,286046999.8,N
1715020816.0,286046999.8,N
1715020835.8,286047000.0,N
1715020855.7,286047000.0,N
1715020875.5,286047000.9,N
1715020895.3,286047000.2,N
1715020915.2,286047001.1,N
1715020935.9,286047000.6,N
1715020955.7,286046998.2,N
1715020975.6,286046998.1,N
1715020995.4,286046998.3,N
1715021015.3,286046998.4,N
1715021035.1,286046998.4,N
1715021036.0,286046998.4,N
1715021055.8,286046998.8,N
1715021075.7,286046998.5,N
1715021095.5,286046999.1,N
1715021115.3,286046998.1,N
1715021135.2,286046998.9,N
1715021155.0,286046996.7,N
1715021155.9,286046996.7,N
1715021175.8,286046999.5,N
1715021195.6,286046996.9,N
1715021215.4,286046998.7,N
1715021235.3,286046998.2,N
1715021255.1,286046998.7,N
1715021275.9,286046996.5,N
1715021295.7,286046998.0,N
1715021315.5,286046997.9,N
1715021335.4,286046997.2,N
1715021355.2,286046997.7,N
1715021375.1,286046997.7,N
1715021376.0,286046997.7,N
1715021395.8,286046997.3,N
1715021415.7,286046997.1,N
1715021435.5,286046996.6,Y
1715021455.3,286047000.5,P
1715021475.2,286046999.9,N
1715021495.0,286047002.6,N
1715021495.9,286047002.6,N
1715021515.8,286047001.0,N
1715021535.6,286047001.2,N
1715021555.4,286046998.6,N
1715021575.3,286047000.4,N
1715021595.1,286047001.2,N
1715021615.9,286047000.9,N
1715021635.7,286047001.1,N
1715021655.5,286047000.8,N
1715021675.4,286046998.5,N
1715021695.2,286046998.8,N
1715021715.1,286046999.3,N
1715021716.0,286046999.3,N
1715021735.8,286046998.4,N
1715021755.6,286047000.6,N
1715021775.5,286047000.4,N
1715021795.3,286047000.6,N
1715021815.2,286047000.9,N
1715021835.9,286047002.3,N
1715021855.7,286047000.2,N
1715021875.6,286047000.8,N
1715021895.4,286046998.7,N
1715021915.3,286047000.6,N
1715021935.1,286047001.0,N
1715021936.0,286047001.0,N
1715021955.8,286047000.0,N
1715021975.7,286047000.2,N
1715021995.5,286046999.9,N
